TIME,DELAY(SENSOR),PRES,T(CTD),SAL,OXYGEN,RAWTEMP,T(OPTODE),TCPHASE,FLUOR,BETA(BETA700),BETA(BETA412),BETA(BETA440),CDOM,C(CSC),ED(ED412.40),ED(ED444.00),ED(ED489.70),ED(ED554.30),LU(LU411.80),LU(LU443.40),LU(LU489.60),LU(LU554.10),COMP,TILTX,TILTX(TILTY),CHECK
1360878004,5807,496.3699951171875000,6.8836002349853520,34.1057014465332000,90.3035736083984400,591.4033203125000000,6.8616218566894530,47.6053810119628900,52,103,89,80,79,14930,2147749211,2147426578,2148005613,2147876278,2147626880,2147074569,2148244571,2147198272,1876,4,13,26367
1360878143,5810,485.8699951171875000,7.0402998924255370,34.1035995483398440,95.7888412475586000,586.5114746093750000,7.0191359519958500,46.9336318969726560,51,103,88,80,78,14929,2147747894,2147426486,2148004224,2147874486,2147624502,2147076352,2148245412,2147197449,2070,4,13,36709
1360878294,5806,474.7000122070312500,7.2892999649047850,34.0989990234375000,102.9589996337890600,578.5206909179688000,7.2759690284729000,46.0469818115234400,51,105,88,79,76,14927,2147750262,2147427803,2148001078,2147873453,2147627145,2147081828,2148245348,2147194212,2335,4,13,4050
1360878431,5805,463.0199890136719000,7.4191999435424805,34.0928001403808600,111.8600006103515600,574.3175048828125000,7.4108309745788570,45.0781402587890600,52,103,88,79,77,14931,2147746788,2147425874,2148005604,2147871707,2147626779,2147085531,2148239990,2147201289,1260,4,13,53277
1360878546,5805,451.6600036621094000,7.5999999046325680,34.0868988037109400,120.5934982299804700,568.7647094726562000,7.5887579917907715,44.1396598815918000,50,102,89,80,77,14930,2147744155,2147425965,2148005558,2147873417,2147626898,2147081929,2148239945,2147199113,1140,4,13,13183
1360878663,5810,440.2600097656250000,7.7416000366210940,34.0847015380859400,126.5177001953125000,564.5795288085938000,7.7226848602294920,43.5172615051269500,50,102,89,80,76,14929,2147747876,2147426980,2148003574,2147876004,2147623085,2147083254,2148242642,2147196416,1589,4,13,58061
1360878778,5807,429.4899902343750000,7.8207998275756840,34.0844993591308600,131.0090942382812500,562.0747070312500000,7.8027667999267580,43.0682487487793000,50,102,85,81,75,14929,2147745243,2147426870,2148003803,2147871872,2147621174,2147084672,2148237522,2147198848,1981,4,13,58737
1360878905,5808,418.1600036621094000,8.1854000091552730,34.0806999206543000,138.8374938964843800,550.3270263671875000,8.1776466369628900,42.1793289184570300,50,103,83,79,75,14928,2147746797,2147428425,2148005120,2147870683,2147621284,2147081682,2148235318,2147201078,2472,4,13,4073
1360879034,5809,407.5100097656250000,8.5613002777099610,34.1010017395019500,146.9497070312500000,538.8524169921875000,8.5427131652832030,41.2971000671386700,50,104,89,80,75,14926,2147745069,2147426834,2148003401,2147874331,2147621577,2147087963,2148237037,2147196150,1335,4,13,13461
1360879173,5811,396.0599975585937500,8.8646001815795900,34.0952987670898440,153.4701995849609400,528.7501831054688000,8.8632450103759770,40.5934715270996100,50,105,89,80,74,14925,2147745645,2147428086,2148006043,2147875273,2147617353,2147088896,2148231917,2147199826,1223,3,13,10992
1360879302,5807,385.7699890136719000,9.1912002563476560,34.0910987854003900,164.1692962646484400,518.4130859375000000,9.1904182434082030,39.5857505798339840,50,105,87,81,73,14921,2147740160,2147427236,2148003876,2147876388,2147619638,2147095616,2148229302,2147202797,848,3,14,7560
1360879441,5807,375.0000000000000000,9.5846996307373050,34.0994987487793000,173.5193023681640600,506.4179077148437500,9.5690803527832030,38.6942291259765600,49,103,85,80,72,14925,2147738925,2147425572,2148003858,2147874404,2147616914,2147091620,2148226304,2147197330,3456,4,14,58969
1360879600,5808,363.1099853515625000,9.9834995269775390,34.1138992309570300,184.6343994140625000,493.5295104980469000,9.9747934341430660,37.7041587829589840,50,105,86,80,71,14926,2147737664,2147427264,2148003547,2147876809,2147610971,2147094756,2148228635,2147196992,3475,4,13,23706
1360879717,5811,351.9500122070312500,10.4640998840332030,34.1263008117675800,191.9387969970703000,478.6806945800781000,10.4408302307128900,36.9734001159668000,50,103,88,80,71,14925,2147736256,2147427465,2148005312,2147876233,2147610834,2147102171,2148223250,2147195675,1216,3,13,53512
1360879832,5809,340.8800048828125000,10.8423004150390620,34.1418991088867200,198.8872985839843800,466.1531982421875000,10.8329000473022460,36.3264198303222660,49,104,86,81,69,14923,2147732269,2147426459,2148005120,2147874368,2147609526,2147099190,2148226066,2147206674,105,4,13,24939
1360879937,5808,330.5199890136719000,11.1409997940063480,34.1469993591308600,205.2332000732422000,456.6706848144531000,11.1290397644042970,35.7842292785644500,48,103,90,80,71,14926,2147736256,2147428416,2148008603,2147872822,2147607908,2147103844,2148223414,2147202240,1063,3,13,43675
1360880052,5809,319.4700012207031000,11.2274999618530270,34.1277999877929700,205.1549987792968800,453.7554931640625000,11.2199697494506840,35.7415618896484400,48,103,89,80,69,14924,2147733540,2147426962,2148008475,2147873764,2147604772,2147108836,2148220132,2147204489,672,3,14,64653
1360880179,5807,308.1900024414062500,11.5676002502441400,34.1347999572753900,205.2451934814453000,442.7402954101562500,11.5631303787231450,35.5575294494628900,49,105,85,80,70,14924,2147731483,2147427730,2148013650,2147872320,2147603666,2147112777,2148222893,2147203382,988,3,14,64254
1360880320,5808,297.5100097656250000,11.8657999038696290,34.1489982604980500,206.6363983154297000,433.1929931640625000,11.8600196838378900,35.3210487365722660,48,104,86,81,70,14924,2147730788,2147432301,2148012315,2147873161,2147601106,2147114038,2148221266,2147205650,1575,4,13,61300
1360880483,5811,287.2300109863281000,12.5258998870849610,34.1693992614746100,207.7082977294922000,412.7685852050781000,12.4935903549194340,34.9336509704589840,49,106,86,81,68,14922,2147729115,2147431579,2148019044,2147876068,2147598921,2147119826,2148223268,2147203675,3132,3,14,10842
1360880643,5809,275.0400085449219000,13.6536998748779300,34.2788009643554700,211.9559020996093800,375.4321899414062500,13.6468296051025390,34.1104888916015600,49,103,85,80,68,14921,2147722084,2147435072,2148032539,2147874048,2147598482,2147137088,2148221074,2147204790,9,3,14,10451
1360880758,5809,263.9899902343750000,14.6596002578735350,34.3651008605957000,210.6378021240234400,338.6564941406250000,14.7776298522949220,33.6307601928710940,48,102,88,78,67,14920,2147725019,2147444736,2148045394,2147872521,2147589449,2147141257,2148219446,2147206473,223,3,13,36107
1360880875,5809,253.3699951171875000,15.6073999404907230,34.4635009765625000,209.2734985351562500,312.2043151855469000,15.5885696411132810,33.3177413940429700,47,105,87,80,69,14917,2147723648,2147452982,2148056219,2147869705,2147583222,2147148544,2148219949,2147212425,3206,3,14,20494
1360881002,5807,242.9799957275390600,16.3906002044677730,34.5643997192382800,211.1215972900390600,286.2544860839844000,16.3826599121093750,32.8369789123535160,48,104,88,80,66,14916,2147723684,2147460891,2148077357,2147875035,2147580342,2147160649,2148225627,2147209673,972,3,13,28969
1360881185,5807,230.3600006103515600,17.0319004058837900,34.6528015136718750,211.9031066894531200,263.8507995605469000,17.0674304962158200,32.4734992980957000,49,102,90,80,65,14913,2147722944,2147493312,2148138358,2147874624,2147578249,2147193636,2148254546,2147214564,3146,3,14,24886
1360881324,5809,219.1000061035156200,17.8180007934570300,34.7647018432617200,213.2317962646484400,237.6145935058593800,17.8687992095947270,32.0317611694335940,49,103,89,79,66,14911,2147726482,2147514331,2148168521,2147874249,2147576429,2147207798,2148270765,2147216448,1662,3,15,59989
1360881451,5808,207.5800018310547000,18.3292999267578120,34.8339996337890600,212.9676971435547000,221.1589050292968800,18.3713302612304700,31.8178596496582030,49,102,88,79,64,14909,2147735424,2147563282,2148249892,2147874377,2147580781,2147247213,2148308242,2147221284,1667,3,15,24152
1360881562,5811,197.8600006103515600,18.8798007965087900,34.9191017150878900,216.1331939697265600,204.7595062255859400,18.8721904754638670,31.4223308563232420,50,105,89,80,64,14906,2147755081,2147636681,2148370157,2147875858,2147589906,2147292224,2148362651,2147225499,1450,3,14,39837
1360881617,5807,193.2400054931640600,19.1177005767822270,34.9532012939453100,215.6804962158203000,194.1114044189453000,19.1974792480468750,31.3016700744628900,50,102,86,79,64,14905,2147774994,2147690249,2148454153,2147873124,2147594806,2147334921,2148407744,2147231835,838,2,14,36201
1360881672,5809,188.8999938964843800,19.4423999786376950,35.0032997131347660,216.9006042480468800,185.7326965332031200,19.4535198211669920,31.1235694885253900,50,102,88,80,65,14901,2147795584,2147750080,2148555757,2147876041,2147598436,2147378660,2148456000,2147234093,337,2,15,12660
1360881727,5810,184.7700042724609400,19.7336997985839840,35.0435981750488300,216.8247070312500000,177.1714019775390600,19.7152194976806640,31.0121192932128900,52,107,89,80,64,14901,2147851958,2147912457,2148836032,2147876973,2147624512,2147468672,2148587437,2147245220,644,2,15,37944
1360881782,5809,180.9799957275390600,19.9034004211425780,35.0662994384765600,217.4940032958984400,171.4555053710937500,19.8899993896484380,30.9002208709716800,53,107,85,81,63,14896,2147875821,2147949659,2148876187,2147873124,2147634084,2147501101,2148617700,2147246098,143,3,15,47470
1360881861,5807,175.9799957275390600,20.2094001770019530,35.1059989929199200,217.4806060791015600,161.0771026611328000,20.2074604034423830,30.7620391845703120,54,110,91,81,63,14887,2147933385,2148066660,2149050861,2147874971,2147662592,2147584246,2148714998,2147256155,753,2,15,21268
1360881928,5809,172.1999969482422000,20.3721008300781250,35.1277008056640600,217.6797027587890600,155.4853057861328000,20.3785896301269530,30.6772193908691400,56,110,88,82,64,14883,2147991945,2148167670,2149184073,2147875044,2147688676,2147641078,2148777554,2147256914,3228,2,15,11784
1360881995,5815,168.2500000000000000,20.5242996215820300,35.1430015563964840,218.1177062988281200,151.2536010742187500,20.5081291198730470,30.5982093811035160,60,111,90,82,62,14889,2148057380,2148280841,2149338697,2147876233,2147714816,2147718482,2148847798,2147263296,2693,2,15,46230
1360882062,5808,164.2799987792968800,20.7213001251220700,35.1688995361328100,219.0198974609375000,144.9277954101562500,20.7018508911132800,30.4679298400878900,68,118,91,81,63,14880,2148070738,2148247588,2149243200,2147877376,2147721792,2147701028,2148814774,2147262619,1877,2,15,48489
1360882129,5811,160.5099945068359400,20.8348999023437500,35.1799011230468750,220.3193969726562500,140.7189941406250000,20.8307800292968750,30.3457698822021500,73,116,90,82,63,14871,2148107556,2148287094,2149275794,2147875803,2147739803,2147723172,2148818998,2147263387,1082,2,16,1735
1360882198,5808,156.5599975585937500,21.0151996612548830,35.1990013122558600,221.5133056640625000,135.4105987548828000,20.9934597015380860,30.2152099609375000,84,121,90,81,61,14864,2148149467,2148328960,2149304740,2147876059,2147756388,2147738130,2148823094,2147263085,953,2,15,48777
1360882277,5811,152.4199981689453000,21.1515998840332030,35.2041015625000000,221.8688049316406200,130.0747070312500000,21.1570491790771500,30.1272907257080080,86,119,89,82,62,14858,2148178523,2148324772,2149260845,2147878820,2147764288,2147723739,2148785307,2147262253,986,1,15,42462
1360882356,5806,148.8899993896484400,21.2723007202148440,35.2069015502929700,221.3146057128906200,126.6882019042968800,21.2609100341796880,30.1108608245849600,92,117,90,81,62,14854,2148211693,2148344420,2149264301,2147882596,2147775853,2147723684,2148779483,2147261961,3272,2,16,60116
1360882459,5807,144.9900054931640600,21.3257007598876950,35.2112998962402340,221.0516052246093800,124.6560974121093800,21.3232498168945300,30.0976390838623050,94,121,90,83,62,14848,2148476873,2148769243,2149855030,2147882477,2147888859,2147951222,2149044608,2147286418,3592,2,16,41937
1360882576,5807,140.9199981689453000,21.4053993225097660,35.2098007202148440,220.6802062988281200,122.0381011962890600,21.4035701751709000,30.0824394226074220,98,122,88,81,62,14843,2148849526,2149320310,2150589659,2147890441,2148039524,2148235145,2149369984,2147310747,403,2,15,32751
1360882715,5810,137.2200012207031200,21.6765003204345700,35.2144012451171900,220.2454986572265600,113.5736999511718800,21.6634197235107420,29.9938392639160160,115,124,89,84,61,14820,2149291264,2149890432,2151283977,2147896621,2148214912,2148498194,2149659218,2147332598,1138,2,15,18330
1360882873,5809,132.6199951171875000,21.8701992034912100,35.2342987060546900,222.1215057373047000,107.5800018310546900,21.8475399017334000,29.8215007781982420,111,128,89,83,63,14807,2149837942,2150511808,2151955492,2147901659,2148409499,2148736960,2149888841,2147358016,909,2,16,8148
1360882964,5805,129.0599975585937500,22.3497009277343750,35.2788009643554700,224.9501037597656200,93.5235137939453100,22.2798004150390620,29.4998092651367200,123,129,91,84,60,14803,2150134464,2150805366,2152219172,2147902317,2148529828,2148853312,2149968621,2147367460,1502,2,16,65196
1360883103,5811,125.3899993896484400,22.6308002471923830,35.2984008789062500,229.4871063232422000,82.9649963378906200,22.6049499511718750,29.1444892883300780,137,124,91,84,61,14790,2150621065,2151360082,2152798994,2147913115,2148732169,2149085705,2150185956,2147391040,2125,1,16,42841
1360883266,5806,121.1999969482421900,23.0895004272460940,35.3207015991210940,233.1179962158203000,68.2713699340820300,23.0581398010253900,28.7862396240234380,125,121,89,83,60,14800,2151578816,2152526427,2154055625,2147926308,2149186550,2149631634,2150700681,2147440859,1683,2,16,1994
1360883417,5809,117.2500000000000000,23.2618999481201170,35.3408012390136700,234.4902954101562500,62.1799201965332000,23.2462692260742200,28.6455001831054700,117,121,91,83,59,14796,2152227574,2153197110,2154610560,2147934939,2149543387,2149975021,2150960246,2147465773,2942,2,16,1018
1360883532,5805,112.5500030517578100,23.3239002227783200,35.3247985839843750,235.6663055419922000,60.0111503601074200,23.3132896423339840,28.5639991760253900,97,118,90,84,61,14799,2153628342,2154702665,2155973449,2147959286,2150267986,2150780516,2151632621,2147528658,2862,1,16,9264
1360883611,5806,108.5100021362304700,23.4691009521484380,35.3263015747070300,236.3292999267578000,55.7846603393554700,23.4439601898193360,28.4803390502929700,84,120,93,83,59,14805,2155237677,2156426496,2157598281,2147989312,2151123538,2151771894,2152475812,2147608850,2954,2,16,31300
1360883690,5810,104.5800018310546900,23.5832004547119140,35.3413009643554700,236.7279052734375000,51.4184188842773440,23.5790290832519530,28.4075298309326170,83,120,90,84,59,14811,2156849270,2158088283,2159091510,2148019849,2152060123,2152804827,2153309357,2147689618,3387,2,16,26579
1360883769,5808,100.7799987792968800,23.7464008331298830,35.3544998168945300,238.8582000732422000,46.4733009338378900,23.7321205139160160,28.2489204406738280,78,123,90,84,57,14812,2158553344,2159930422,2160831625,2148063378,2153353801,2154193334,2154392630,2147782226,3418,2,16,47392
1360883826,5808,98.1999969482421900,23.7553005218505860,35.3520011901855500,239.4806976318359400,45.8726882934570300,23.7507190704345700,28.2132396697998050,77,121,91,84,57,14805,2160449563,2161997147,2162813705,2148116178,2154685522,2155600000,2155484498,2147884480,2880,2,16,36050
1360883881,5805,95.6800003051757800,23.7467994689941400,35.3288993835449200,239.9046936035156200,46.0144081115722660,23.7463302612304700,28.1960906982421880,75,123,92,84,57,14806,2160563108,2161853001,2162384347,2148125010,2155074944,2155837842,2155491977,2147884617,2882,2,16,16753
1360883936,5807,93.3099975585937500,23.7632007598876950,35.3200988769531250,239.8215942382812500,45.6610488891601560,23.7572708129882800,28.1953392028808600,77,124,90,84,58,14804,2162043273,2163317869,2163653540,2148170084,2156158180,2156925897,2156277558,2147958720,3395,2,16,25395
1360883991,5809,91.0500030517578100,23.8173999786376950,35.3189010620117200,240.0897979736328000,43.9704513549804700,23.8096408843994140,28.1623306274414060,75,121,91,84,58,14807,2163779593,2165073718,2165250669,2148226532,2157446902,2158240777,2157251200,2148048841,5,2,16,45000
1360884046,5807,88.9400024414062500,23.8325996398925780,35.3185997009277340,240.5200958251953000,43.4360313415527340,23.8262004852294920,28.1362304687500000,73,122,91,85,57,14808,2164970230,2166162560,2166114011,2148263890,2158490816,2159218212,2157888201,2148110811,123,2,16,48666
1360884101,5809,86.9400024414062500,23.8379001617431640,35.3171005249023440,240.6047973632812500,43.1710815429687500,23.8344097137451170,28.1293506622314450,73,121,89,83,58,14804,2167423881,2168646262,2168357952,2148334939,2160443108,2161201627,2159344658,2148240521,384,2,16,54662
1360884158,5809,84.9800033569336000,23.8980007171630860,35.3176994323730500,240.9485931396484400,41.1622390747070300,23.8966598510742200,28.0889396667480470,78,119,90,84,56,14802,2193579337,2199623140,2201031762,2149253696,2178262985,2182272210,2177517613,2149878573,625,1,16,39791
1360884225,5810,83.0400009155273400,23.9382991790771500,35.3202018737793000,241.1251068115234400,39.9560012817382800,23.9340496063232420,28.0661602020263670,73,121,89,84,59,14797,2186814573,2190683748,2190619830,2148991332,2174948544,2177431277,2172578925,2149430756,591,1,16,10858
1360884292,5811,81.2900009155273400,23.9542999267578120,35.3227996826171900,241.2899017333984400,39.3783988952636700,23.9519500732421880,28.0517196655273440,70,120,89,84,56,14796,2182271515,2185029686,2184528137,2148890944,2172880082,2174605952,2169843904,2149192521,358,1,16,16455
1360884371,5809,79.2399978637695300,23.9864006042480470,35.3246002197265600,241.4201965332031200,38.3338508605957000,23.9843406677246100,28.0328292846679700,72,121,90,84,57,14791,2181201408,2183461622,2182591716,2148889152,2172835830,2174090386,2169033993,2149118610,83,2,16,8818
1360884450,5811,77.1699981689453100,24.0851993560791000,35.3261985778808600,241.1591033935547000,35.1788597106933600,24.0821990966796880,28.0053901672363280,70,122,92,85,56,14788,2179661769,2181292352,2179973824,2148893760,2172152320,2172697856,2167407094,2148990025,3449,2,16,56820
1360884528,5807,74.8199996948242200,24.1625995635986330,35.3268013000488300,240.8374938964843800,32.6221199035644500,24.1615295410156250,27.9880409240722660,67,121,91,84,59,14783,2182558884,2184767606,2183691666,2149193536,2174738715,2175301988,2169259181,2149186249,531,1,16,56086
1360884583,5810,72.3899993896484400,24.2234001159667970,35.3273010253906250,240.5218048095703000,30.7963905334472660,24.2182006835937500,27.9795303344726560,67,120,90,84,58,14763,2177541659,2178813632,2177469421,2149036708,2171820443,2171815963,2166259565,2148913920,17,2,16,327
1360884638,5809,69.7900009155273400,24.2667999267578120,35.3280982971191400,240.0632019042968800,29.4551296234130860,24.2598495483398440,27.9835891723632800,66,123,91,83,57,14779,2179968649,2181254838,2179674880,2149237184,2174393965,2174242870,2167896612,2149077860,3248,2,17,27834
1360884693,5806,67.2099990844726600,24.2856998443603500,35.3283996582031250,239.9078063964843800,28.6778793334960940,24.2839794158935550,27.9806709289550780,65,122,91,86,54,14780,2190734857,2193006710,2191325476,2150019812,2183889627,2184094765,2175299136,2149823963,3230,2,16,26287
1360884748,5806,64.6500015258789000,24.3295001983642580,35.3306007385253900,239.5469970703125000,27.3878593444824220,24.3240509033203120,27.9808692932128900,66,122,93,84,56,14770,2205487917,2209093147,2207264804,2151160146,2197778523,2198612891,2186249590,2150904274,343,1,16,62396
1360884803,5810,62.2599983215332000,24.3967990875244140,35.3367996215820300,239.3793029785156200,25.0809192657470700,24.3957290649414060,27.9599895477294920,71,124,90,84,54,14779,2265490733,2277480658,2276769792,2156056768,2250754642,2255647094,2230187337,2155370322,1189,1,16,63832
1360884860,5808,60.0400009155273440,24.4256000518798830,35.3415985107421900,239.3957977294922000,24.0140399932861330,24.4288806915283200,27.9460792541503900,66,122,90,85,57,14776,2241559030,2248487872,2246066660,2154518774,2232630482,2234737709,2213074733,2153683894,1075,1,17,9447
1360884915,5807,57.9099998474121100,24.4466991424560550,35.3446998596191400,239.4425048828125000,23.4003505706787100,24.4479598999023440,27.9363498687744140,67,122,92,87,56,14778,2277131684,2289108854,2289022052,2158844214,2261058916,2265046317,2236408493,2156433618,770,2,16,50957
1360884970,5808,55.8300018310546900,24.4748992919921880,35.3428993225097660,239.6147003173828000,22.4425392150878900,24.4777297973632800,27.9168395996093750,64,124,93,86,59,14772,2282337645,2293107291,2291813293,2160096941,2269381933,2272309330,2240834194,2156965531,570,1,16,61080
1360885025,5806,53.8499984741210940,24.4974002838134770,35.3381996154785160,239.4880065917968800,21.5427608489990230,24.5057106018066400,27.9112701416015620,64,125,94,86,54,14775,2283305627,2292689462,2290132132,2160767725,2275652790,2277844736,2244193947,2157465179,498,1,16,40518
1360885080,5808,51.9500007629394500,24.5571994781494140,35.3251991271972660,239.2984008789062500,19.5590896606445300,24.5673999786376950,27.8953094482421880,63,128,94,84,58,14753,2287606902,2297079085,2294474121,2162172096,2279343378,2280387446,2245255378,2157742857,216,1,16,30783
1360885135,5814,50.2400016784668000,24.6688003540039060,35.2957992553710940,238.5484924316406200,16.2764396667480470,24.6695308685302730,27.8885707855224600,61,125,91,85,59,14770,2283304960,2291689499,2287564489,2162002752,2280755675,2280830235,2244795730,2157746212,2703,0,17,31905
1360885214,5807,48.0000000000000000,24.7019996643066400,35.2843017578125000,237.8406982421875000,15.1880302429199220,24.7034091949462900,27.9068298339843750,55,122,92,86,55,14782,2285473910,2294387675,2290680557,2164196653,2290261312,2288986797,2249665755,2158849014,2340,2,17,28317
1360885269,5809,45.8600006103515600,24.6987991333007800,35.2854003906250000,237.7093963623047000,15.1848802566528320,24.7035102844238280,27.9127597808837900,56,122,92,84,55,14775,2279954112,2286584841,2281894518,2164300608,2283799817,2279866395,2241024923,2157931949,2477,1,17,54779
1360885324,5808,43.7999992370605500,24.7038993835449220,35.2839012145996100,237.6520996093750000,14.9666500091552730,24.7103004455566400,27.9126701354980470,55,124,89,85,57,14780,2299811638,2309022802,2305401920,2169531501,2313065216,2309183332,2262043108,2160829440,2340,1,16,62252
1360885379,5808,41.2000007629394500,24.7040996551513670,35.2836990356445300,237.6349029541015600,15.0274200439453120,24.7084102630615230,27.9140491485595700,55,125,93,85,53,14786,2311072905,2321636077,2319323044,2175072466,2330062445,2324804772,2272099776,2162764955,2149,2,16,63059
1360885434,5807,38.1800003051757800,24.7035007476806640,35.2835006713867200,237.5816040039062500,14.9799203872680660,24.7098903656005860,27.9159698486328120,55,124,94,86,56,14782,2303941787,2312076662,2308960466,2176177472,2329637440,2321931218,2268031104,2162398317,2234,1,16,3675
1360885489,5810,35.0299987792968750,24.7084999084472660,35.2835998535156250,237.6246032714843800,14.8249301910400390,24.7147102355957030,27.9121704101562500,54,121,92,84,56,14782,2330079296,2340924480,2340956105,2188100150,2369864685,2361311945,2296213165,2167865188,2386,1,17,51027
1360885546,5804,31.6399993896484380,24.7089004516601560,35.2829017639160160,237.7319946289062500,14.6692399978637700,24.7195606231689450,27.9055099487304700,54,123,91,84,62,14787,2350288438,2360940032,2362065792,2200104822,2389762706,2377468361,2305756013,2170475821,2609,1,16,15332
1360885601,5822,28.4300003051757800,24.7117004394531250,35.2827987670898440,237.9080047607422000,14.4694995880126950,24.7257804870605470,27.8950290679931640,54,122,92,84,51,14786,2364974820,2376382400,2378761225,2212072201,2421172644,2406704137,2326011657,2175607469,2508,2,17,64248